Weather reports worldwide

Advertisment
Blencathra, United Kingdom (99143): temperature & dewpoint: 15.05.2019 04:00:00 - 21.05.2019 04:00:00 (BST)Blencathra, United Kingdom (99143): precipitation: 15.05.2019 04:00:00 - 21.05.2019 04:00:00 (BST)
Date & Time tt [°C] td [°C] rr [mm]
21.05.2019 04:00:00 7,8 6,4 0,0
21.05.2019 03:00:00 8,2 6,6 0,0
21.05.2019 02:00:00 8,3 6,7 0,0
21.05.2019 01:00:00 8,3 6,3 0,0
21.05.2019 00:00:00 8,7 6,3 0,0
20.05.2019 23:00:00 9,4 6,8 0,0
20.05.2019 22:00:00 9,4 5,9 0,0
20.05.2019 21:00:00 10,3 6,5 0,0
20.05.2019 20:00:00 11,4 6,8 0,0
20.05.2019 19:00:00 13,1 7,2 0,0
20.05.2019 18:00:00 14,0 7,8 0,0
20.05.2019 17:00:00 14,8 8,3 0,0
20.05.2019 16:00:00 14,5 7,5 0,0
20.05.2019 15:00:00 14,9 8,4 0,0
20.05.2019 14:00:00 15,2 8,5 0,0
20.05.2019 13:00:00 14,2 7,2 0,0
20.05.2019 12:00:00 13,9 7,5 0,0
20.05.2019 11:00:00 13,5 7,1 0,0
20.05.2019 10:00:00 12,2 7,9 0,0
20.05.2019 09:00:00 10,6 7,4 0,0
20.05.2019 08:00:00 9,7 8,2 0,0
20.05.2019 07:00:00 9,5 7,8 0,0
20.05.2019 06:00:00 8,0 6,3 0,0
20.05.2019 05:00:00 8,2 6,7 0,0
20.05.2019 04:00:00 8,9 7,8 0,0
20.05.2019 03:00:00 9,0 7,8 0,0
20.05.2019 02:00:00 9,4 7,7 0,0
20.05.2019 01:00:00 9,6 7,7 0,0
20.05.2019 00:00:00 9,8 8,0 0,0
19.05.2019 23:00:00 10,0 8,0 0,0
19.05.2019 22:00:00 10,0 7,9 0,0
19.05.2019 21:00:00 10,3 8,1 0,0
19.05.2019 20:00:00 10,7 8,2 0,0
19.05.2019 19:00:00 11,2 8,1 0,0
19.05.2019 18:00:00 12,2 8,0 0,0
19.05.2019 17:00:00 12,0 7,8 0,0
19.05.2019 16:00:00 11,9 7,7 0,0
19.05.2019 15:00:00 12,0 7,2 0,0
19.05.2019 14:00:00 12,0 7,3 0,0
19.05.2019 13:00:00 11,9 7,8 0,0
19.05.2019 12:00:00 11,2 7,7 0,0
19.05.2019 11:00:00 10,8 7,2 0,0
19.05.2019 10:00:00 10,0 7,7 0,0
19.05.2019 09:00:00 9,1 8,4 0,0
19.05.2019 08:00:00 8,8 7,8 0,0
19.05.2019 07:00:00 8,6 7,4 0,0
19.05.2019 06:00:00 8,6 7,0 0,0
19.05.2019 05:00:00 8,5 6,7 0,0
19.05.2019 04:00:00 8,1 6,7 0,0
19.05.2019 03:00:00 8,2 7,3 0,0
19.05.2019 02:00:00 7,9 7,1 0,0
19.05.2019 01:00:00 8,0 7,1 0,0
19.05.2019 00:00:00 8,1 7,0 0,0
18.05.2019 23:00:00 9,5 8,1 0,0
18.05.2019 22:00:00 10,5 8,2 0,0
18.05.2019 21:00:00 11,0 8,8 0,0
18.05.2019 20:00:00 11,3 8,5 0,0
18.05.2019 19:00:00 11,4 8,7 0,0
18.05.2019 18:00:00 11,9 8,6 0,0
18.05.2019 17:00:00 12,4 8,5 0,0
18.05.2019 16:00:00 13,1 8,4 0,0
18.05.2019 15:00:00 13,4 8,6 0,0
18.05.2019 14:00:00 13,3 8,7 0,0
18.05.2019 13:00:00 12,5 8,2 0,0
18.05.2019 12:00:00 12,5 6,9 0,0
18.05.2019 11:00:00 11,6 7,4 0,0
18.05.2019 10:00:00 10,7 7,5 0,0
18.05.2019 09:00:00 10,6 7,6 0,0
18.05.2019 08:00:00 10,3 8,0 0,0
18.05.2019 07:00:00 8,8 7,8 0,0
18.05.2019 06:00:00 8,2 7,2 0,0
18.05.2019 05:00:00 8,5 7,0 0,0
18.05.2019 04:00:00 8,7 6,9 0,0
18.05.2019 03:00:00 8,5 6,8 0,0
18.05.2019 02:00:00 8,5 6,9 0,0
18.05.2019 01:00:00 8,9 6,5 0,0
18.05.2019 00:00:00 9,1 5,7 0,0
17.05.2019 23:00:00 9,2 5,1 0,0
17.05.2019 22:00:00 10,0 4,5 0,0
17.05.2019 21:00:00 11,6 5,4 0,0
17.05.2019 20:00:00 13,1 5,1 0,0
17.05.2019 19:00:00 13,7 5,0 0,0
17.05.2019 18:00:00 14,2 2,9 0,0
17.05.2019 17:00:00 15,0 6,1 0,0
17.05.2019 16:00:00 15,6 4,4 0,0
17.05.2019 15:00:00 16,0 4,1 0,0
17.05.2019 14:00:00 16,7 7,2 0,0
17.05.2019 13:00:00 15,2 7,2 0,0
17.05.2019 12:00:00 14,6 6,1 0,0
17.05.2019 11:00:00 13,2 7,5 0,0
17.05.2019 10:00:00 11,1 4,5 0,0
17.05.2019 09:00:00 11,2 7,7 0,0
17.05.2019 08:00:00 8,4 5,5 0,2
17.05.2019 07:00:00 7,0 5,2 1,4
17.05.2019 06:00:00 8,4 3,3 0,2
17.05.2019 05:00:00 8,2 2,3 0,0
17.05.2019 04:00:00 8,9 2,2 0,0
17.05.2019 03:00:00 9,5 1,4 0,0
17.05.2019 02:00:00 9,6 1,7 0,0
17.05.2019 01:00:00 9,3 1,4 0,0
17.05.2019 00:00:00 9,4 1,5 0,0
16.05.2019 23:00:00 9,5 1,5 0,0
16.05.2019 22:00:00 9,5 2,3 0,0
16.05.2019 21:00:00 10,5 3,1 0,0
16.05.2019 20:00:00 12,2 3,6 0,0
16.05.2019 19:00:00 13,3 4,2 0,0
16.05.2019 18:00:00 13,4 4,1 0,0
16.05.2019 17:00:00 14,4 3,8 0,0
16.05.2019 16:00:00 14,7 3,9 0,0
16.05.2019 15:00:00 15,3 5,4 0,0
16.05.2019 14:00:00 15,1 5,4 0,0
16.05.2019 13:00:00 14,5 5,2 0,0
16.05.2019 12:00:00 14,2 4,5 0,0
16.05.2019 11:00:00 13,4 2,9 0,0
16.05.2019 10:00:00 13,3 6,2 0,0
16.05.2019 09:00:00 11,5 4,4 0,0
16.05.2019 08:00:00 10,2 3,9 0,0
16.05.2019 07:00:00 9,8 3,6 0,0
16.05.2019 06:00:00 8,8 2,4 0,0
16.05.2019 05:00:00 9,6 3,9 0,0
16.05.2019 04:00:00 11,2 5,8 0,0
16.05.2019 03:00:00 10,7 5,7 0,0
16.05.2019 02:00:00 11,9 6,7 0,0
16.05.2019 01:00:00 12,6 7,5 0,0
16.05.2019 00:00:00 13,5 7,5 0,0
15.05.2019 23:00:00 14,1 8,2 0,0
15.05.2019 22:00:00 14,1 9,4 0,0
15.05.2019 21:00:00 15,4 9,1 0,0
15.05.2019 20:00:00 16,3 9,6 0,0
15.05.2019 19:00:00 16,4 9,6 0,0
15.05.2019 18:00:00 17,7 10,3 0,0
15.05.2019 17:00:00 19,0 11,1 0,0
15.05.2019 16:00:00 20,2 9,7 0,0
15.05.2019 15:00:00 20,8 9,2 0,0
15.05.2019 14:00:00 20,2 7,5 0,0
15.05.2019 13:00:00 19,2 8,4 0,0
15.05.2019 12:00:00 19,5 9,2 0,0
15.05.2019 11:00:00 17,7 7,4 0,0
15.05.2019 10:00:00 16,3 7,6 0,0
15.05.2019 09:00:00 14,6 6,6 0,0
15.05.2019 08:00:00 13,5 7,0 0,0
15.05.2019 07:00:00 12,9 7,5 0,0
15.05.2019 06:00:00 10,9 5,8 0,0
15.05.2019 05:00:00 11,7 5,9 0,0
15.05.2019 04:00:00 11,4 5,8 0,0

tt = temperature
td = dewpoint
rr = precipitation

Next stations